CZ-6A DEB, 61491

Orbit data source: Space-Track

CZ-6A DEB, 61491 is space debris in LEO originally from a launch on Tue, 06 Aug 2024 UTC launched from the Taiyaun Space Center, China (TSC). Debris objects in space refer to the collection of defunct objects orbiting the Earth. Examples of debris include non-operational satellites, rocket bodies, and fragments generated from explosions, collisions, or faulty payload assembly.

Loading next visibility...
Identifier
61491, 2024-140AAZ
Orbit
LEO
Country
Flag of CNCN / PRC
Related business
Manufacturer
SAST
Mission
Spacecraft
Bus & Motor
Unknown
Mass
Unknown
Launch date (UTC)
2024-08-06 (2 years ago)
Launch vehicle
Unknown
Launch site
Taiyaun Space Center, China (TSC)
Object type
Payload
Rocket body
Debris
Shape & HBR
Unknown shape, 0.2 m
Radar Cross Section
Medium (>0.1 m² and <1 m²)

Expand to show TLE details & history
Last TLE update: 12 hours ago

TLE from 12 hours ago
0 CZ-6A DEB
1 61491U 24140AAZ 26171.46043668  .00000253  00000-0  85704-4 0  9994
2 61491  88.6668 245.2016 0034439 245.8736 113.8859 14.33250817 92698
Epoch: 2026-06-20T11:03Z
TLE epoch observation values (Epoch: 2026-06-20T11:03:01.729Z)
Latitude
0.00006°
Longitude
170.76966°
Altitude
794.012 km
Speed
7.451 km/s
True Right ascension
16h 20m 48s
True Declination
0° 00' 00"
Sunlit
Object was in full shadow at epoch
Visualization orbit readout
Latitude
Unknown
Longitude
Unknown
Altitude
Unknown
Speed
Unknown
Apparent Right ascension
Unknown
Apparent Declination
Unknown
Sunlit
N/A
Visualization observer readout
Local Sidereal Time
10:18:39
Azimuth
Unknown
Elevation
Unknown
Doppler factor
Unknown
Orbital elements
Apogee altitude
802.464 km
Perigee altitude
753.175 km
Semi-major axis
7,155.957 km
Eccentricity
0.00344
Inclination
88.6668°
RAAN
245.2016°
Arg. of periapsis
245.8736°
True anomaly
114.24611°
Mean anomaly
113.8859°
Eccentric anomaly
114.06607°
Mean motion
3.58543 °/min
Orbital period
100.41 mins
BSTAR
0.000085704
Loading maneuver chart data...
Computing Atmospheric mass density...
Loading historical data...
Loading historical data...
Loading historical data...
Loading historical data...
Loading historical data...
Loading historical data...
Loading historical data...

Documentation

Showing up to 5 results
|